Hourly Data Report for April 22, 2004

SHERBROOKE A
QUEBEC

45°26'00.000" N
71°41'00.000" W
241.40 m
7028124
71610
YSC

Download Data

Hourly Data (April 2004)
Hourly Data Report for April 22, 2004
TIME
LST
Temp Definition
°C
Dew Point Definition
°C
Rel Hum Definition
%
Precip. Amount Definition
mm

Wind Dir Definition
10's deg

Wind Spd Definition
km/h
Visibility Definition
km
Stn Press Definition
kPa
Hmdx Definition


Wind Chill Definition


Weather Definition


00:00 7.7 -0.3 57   8 7 15.0 98.38      
01:00 8.8 1.5 60   12 7 15.0 98.33      
02:00 12.5 5.0 60   19 22 15.0 98.27     Rain
03:00 10.7 6.4 75   20 17 12.9 98.27     Rain
04:00 10.1 7.9 86   19 13 11.3 98.20     Rain
05:00 9.6 7.6 87   22 7 15.0 98.24     Rain
06:00 9.7 7.4 86   20 11 15.0 98.21      
07:00 10.7 7.9 83   20 7 24.1 98.25     Mostly Cloudy
08:00 11.2 8.5 83   25 6 24.1 98.27     Mostly Cloudy
09:00 13.5 9.6 77   20 11 24.1 98.28     Mostly Cloudy
10:00 16.6 11.0 69   23 17 24.1 98.25     Mostly Cloudy
11:00 18.5 10.5 60   23 26 24.1 98.24     Mostly Cloudy
12:00 19.1 10.0 56   23 26 24.1 98.25     Cloudy
13:00 19.3 9.4 53   28 33 24.1 98.32     Mostly Cloudy
14:00 17.2 8.0 55   27 37 24.1 98.43     Mostly Cloudy
15:00 15.5 7.1 57   28 35 24.1 98.54     Cloudy
16:00 14.0 6.6 61   30 28 24.1 98.68     Mostly Cloudy
17:00 12.4 5.1 61   30 15 15.0 98.79      
18:00 10.8 3.8 62   31 15 15.0 98.94      
19:00 9.4 2.7 63   32 9 15.0 99.04      
20:00 8.1 1.1 61   33 9 15.0 99.13      
21:00 7.3 0.3 61   31 11 15.0 99.19      
22:00 6.7 0.0 62   32 6 15.0 99.26      
23:00 5.7 -1.3 61   34 6 15.0 99.28      

Notes on Data Quality.

Legend

  • E = Estimated
  • M = Missing
  • NA = Not Available*
  • [empty] = Indicates an unobserved value
Date modified: